Regional Weather Roundup
Issued by NWS Albany, NY

Home | Current Version | Previous Version | Text Only | Print | Product List | Glossary On
Versions: 1 2 3 4 5 6 7 8 9 10 11 12 13 14 15 16 17 18 19 20 21 22 23 24 25 26 27 28 29 30 31 32 33 34 35 36 37 38 39 40 41 42 43 44 45 46 47 48 49 50
000
ASUS41 KALY 290210
RWRALY

NEW YORK STATE HOURLY WEATHER ROUNDUP
NATIONAL WEATHER SERVICE ALBANY NY
900 PM EST WED JAN 28 2015

NOTE: "FAIR" INDICATES FEW OR NO CLOUDS BELOW 12,000 FEET WITH NO
SIGNIFICANT WEATHER AND/OR NO OBSTRUCTIONS TO VISIBILITY.

NYZ032-033-038>043-046>054-057>066-NYZ062>081-290300-
EAST


CITY           SKY/WX    TMP DP  RH WIND       PRES   REMARKS
ALBANY         CLEAR     14   0  53 N6        30.29R WCI   5
GLENS FALLS    CLEAR      2  -5  72 CALM      30.28R
POUGHKEEPSIE   CLEAR     10   4  76 CALM      30.26R HAZE
MONTGOMERY     CLEAR     12   0  58 CALM      30.23R
WHITE PLAINS   CLEAR     21   2  43 N13       30.20R WCI   9
ISLIP          CLEAR     24   5  44 N13       30.20R WCI  12
NEW YORK CITY  CLEAR     29   4  34 N9        30.24R WCI  20
CENTRAL PARK   CLEAR     28   1  31 N7        30.25R WCI  21
$$

NYZ005>009-017-018-044>046-055-056-290300-
CENTRAL


CITY           SKY/WX    TMP DP  RH WIND       PRES   REMARKS
FULTON         PTCLDY     9   2  73 CALM      30.31R
SYRACUSE       PTCLDY    11   2  67 SE3       30.31R
ROME           PTCLDY     6  -3  66 CALM      30.33S
ELMIRA         CLEAR      5   1  83 CALM      30.30R
BINGHAMTON     PTCLDY    13   4  67 NW7       30.23R WCI   3
MONTICELLO     CLEAR     18   0  45 NW6       30.19S WCI   9
$$

NYZ026>034-041>043-290300-
NORTH


CITY           SKY/WX    TMP DP  RH WIND       PRES   REMARKS
WATERTOWN      PTCLDY     2  -7  66 SE5       30.30S WCI  -8
FORT DRUM      NOT AVBL
MASSENA        PTCLDY     4  -7  60 SW3       30.32R
SARANAC LAKE   PTCLDY    -6 -11  79 CALM      30.18S
PLATTSBURGH    PTCLDY     4  -2  76 CALM      30.28R
$$

NYZ001>004-010>016-019>021-290300-
WEST


CITY           SKY/WX    TMP DP  RH WIND       PRES   REMARKS
NIAGARA FALLS  PTCLDY    15   8  73 S5        30.29F WCI   8
BUFFALO        PTCLDY    13   9  84 S7        30.30F WCI   3
DUNKIRK        PTCLDY     4   2  91 SE5       30.30F WCI  -5
JAMESTOWN      PTCLDY    16   0  48 S3        30.22F
WELLSVILLE     PTCLDY    15  -4  42 CALM      30.22S
ROCHESTER      PTCLDY    14   5  67 SW6       30.32R WCI   5
PENN YAN       PTCLDY     4  -5  66 CALM      30.28S
$$

             KEY
       WCI = WIND CHILL INDEX
       VSB = VISIBILITY
       HX  = HEAT INDEX
$$


USA.gov is the U.S. government's official web portal to all federal, state and local government web resources and services.